Simultaneous Nadir Overpasses (SNOs) Predictions

Prediction of SNOs between GOES-15 and NOAA-20 Satellite Orbit:

Table of predicted SNOs for the next 14.0 days since TLE Epoch: 5/2/2025
Index Date Time (GOES-15) GOES-15 Lat,Lon NOAA-20 Lat,Lon Distance(km) Time Diff (sec)
1 05/02/2025 21:12:43 0.08, 61.52 -0.27, 63.03 171.76 80
2 05/04/2025 09:32:01 -0.06, 61.56 -0.90, 57.71 438.11 80
3 05/05/2025 09:15:57 -0.08, 61.58 0.07, 62.25 76.59 80
4 05/07/2025 21:16:22 0.07, 61.60 0.11, 61.51 10.60 80
5 05/10/2025 09:19:36 -0.06, 61.65 -0.28, 60.73 105.52 80
6 05/11/2025 09:03:32 -0.06, 61.67 0.76, 65.26 408.80 80
7 05/12/2025 21:22:40 0.04, 61.69 0.45, 59.99 194.54 80
8 05/13/2025 21:06:37 0.05, 61.71 -0.59, 64.51 319.61 80
9 05/15/2025 09:25:54 -0.02, 61.76 -0.59, 59.21 290.96 80
10 05/16/2025 09:09:50 -0.03, 61.79 0.39, 63.74 222.63 80
